Weather History for K8D3 - August, 2012

Change the Weather History Date:

Thursday, August 2, 2012

  Actual Average Record
Temperature  
Mean Temperature 71 °F 71 °F  
Max Temperature 85 °F 83 °F 102 °F (1938)
Min Temperature 57 °F 60 °F 46 °F (1976)
Degree Days  
Heating Degree Days 0 0  
Month to date heating degree days 0 0  
Since 1 June heating degree days 27 75  
Since 1 July heating degree days 0 13  
Cooling Degree Days 6 7  
Month to date cooling degree days 18 14  
Year to date cooling degree days 571 336  
Since 1 June cooling degree days 513 313  
Growing Degree Days 22 (Base 50)    
Moisture  
Dew Point 62 °F    
Average Humidity 72    
Maximum Humidity 97    
Minimum Humidity 47    
Precipitation  
Precipitation 0.00 in 0.10 in 3.30 in (1932)
Month to date precipitation 0.00 0.20  
Year to date precipitation 13.21 14.50  
Sea Level Pressure  
Sea Level Pressure 29.83 in    
Wind  
Wind Speed 5 mph (NNE)    
Max Wind Speed 13 mph    
Max Gust Speed 15 mph    
T = Trace of Precipitation, MM = Missing Value Source: NWS Daily Summary

Daily Weather History Graph

Daily Weather History Graph

Search for Another Location

Airport or City:

Trip Planner

Search our weather history database for the weather conditions in past years. The results will help you decide how hot, cold, wet, or windy it might be!

Date:

Astronomy

Aug. 02, 2012 Rise Set
Actual Time 6:13 AM CDT 8:54 PM CDT
Civil Twilight 5:39 AM CDT 9:28 PM CDT
Nautical Twilight 4:55 AM CDT 10:11 PM CDT
Astronomical Twilight 4:05 AM CDT 11:00 PM CDT
Moon 8:53 PM CDT (8/2) 6:56 AM CDT (8/2)
Length of Visible Light 15h 49m
Length of Day
14h 41m
Full, 100% of the Moon is Illuminated
Aug 2
Full
Aug 9
Last Quarter
Aug 17
New
Aug 24
First Quarter
Aug 31
Full

Hourly Weather History & Observations

Time (CDT) Temp. Heat Index Dew Point Humidity Pressure Visibility Wind Dir Wind Speed Gust Speed Precip Events Conditions
12:56 AM 68.0 °F - 64.9 °F 90% 29.84 in - Calm Calm - N/A   Unknown
1:56 AM 64.9 °F - 63.0 °F 93% 29.83 in - NW 4.6 mph - N/A   Unknown
2:56 AM 63.0 °F - 61.0 °F 93% 29.83 in - NNW 5.8 mph - N/A   Unknown
3:56 AM 60.1 °F - 59.0 °F 96% 29.84 in - Calm Calm - N/A   Unknown
4:56 AM 61.0 °F - 59.0 °F 93% 29.84 in - WSW 5.8 mph - N/A   Unknown
5:56 AM 59.0 °F - 55.9 °F 90% 29.83 in - West 3.5 mph - N/A   Unknown
6:56 AM 59.0 °F - 55.9 °F 90% 29.83 in - NNW 4.6 mph - N/A   Unknown
7:56 AM 66.0 °F - 60.1 °F 81% 29.84 in - North 5.8 mph - N/A   Unknown
8:56 AM 72.0 °F - 61.0 °F 68% 29.85 in - North 9.2 mph - N/A   Unknown
9:56 AM 73.9 °F - 63.0 °F 68% 29.85 in - North 8.1 mph - N/A   Unknown
10:56 AM 77.0 °F - 64.9 °F 66% 29.86 in - NE 9.2 mph - N/A   Unknown
11:56 AM 79.0 °F - 64.0 °F 60% 29.86 in - North 9.2 mph - N/A   Unknown
12:56 PM 82.0 °F 82.7 °F 61.0 °F 49% 29.85 in - North 6.9 mph - N/A   Unknown
1:56 PM 82.9 °F 83.7 °F 62.1 °F 49% 29.84 in - North 4.6 mph - N/A   Unknown
2:56 PM 84.0 °F 84.9 °F 63.0 °F 49% 29.83 in - Variable 3.5 mph - N/A   Unknown
3:56 PM 84.9 °F 85.9 °F 63.0 °F 48% 29.82 in - East 3.5 mph - N/A   Unknown
4:56 PM 84.0 °F 85.4 °F 64.0 °F 51% 29.81 in - ENE 5.8 mph - N/A   Unknown
5:56 PM 82.9 °F 83.7 °F 62.1 °F 49% 29.81 in - East 4.6 mph - N/A   Unknown
6:56 PM 82.0 °F 83.4 °F 64.0 °F 54% 29.81 in - East 8.1 mph - N/A   Unknown
7:56 PM 78.1 °F - 66.0 °F 66% 29.80 in - ESE 4.6 mph - N/A   Unknown
8:56 PM 71.1 °F - 66.0 °F 84% 29.80 in - SE 5.8 mph - N/A   Unknown
9:56 PM 70.0 °F - 64.9 °F 84% 29.81 in - SE 4.6 mph - N/A   Unknown
10:56 PM 66.9 °F - 64.0 °F 90% 29.81 in - SSW 4.6 mph - N/A   Unknown
11:56 PM 66.9 °F - 64.0 °F 90% 29.82 in - SW 5.8 mph - N/A   Unknown